Flag for Brazil Weather past 2 weeks in Santos, São Paulo, Brazil

Now
64 °F

Broken clouds.


Feels Like: 64 °F
Forecast: 66 / 72 °F
Wind: 14 mph from South

Location: Sao Paulo Airport

Current Time: Sep 16, 2014 at 5:05:19 PM

Latest Report: Sep 16, 2014 at 4:00 PM


Visibility: N/A

Pressure: 30.09 "Hg

Humidity: 73%

Dew point: 55 °F

Location of SantosLocation

Historic Weather in Santos — Graph

°F

Santos temperature yesterday

Maximum temperature yesterday: 90 °F (at 1:00 PM)
Minimum temperature yesterday: 68 °F (at 12:00 AM)
Average temperature yesterday: 77 °F

Past Weeks' High & Low Weather Summary

 TemperatureHumidityPressure
High90 °F (Sep 11, 1:00 PM)88% (Sep 2, 10:00 PM)30.39 "Hg (Sep 2, 10:00 PM)
Low54 °F (Sep 6, 7:00 AM)15% (Sep 9, 2:00 PM)29.95 "Hg (Sep 2, 3:00 PM)
Average69 °F58%30.14 "Hg
* Reported Sep 1 4:00 PM — Sep 16 4:00 PM, Santos, Weather by CustomWeather, © 2014

Note: Actual official high and low records may vary slightly from our data, if they occured in-between our weather recording intervals... More about our weather records

Advertising

Santos weather history for previous 24 hours

 ConditionsComfort  
Time TempWeatherWind HumidityBarometerVisibility
4:00 PM
Sep 16
64 °FBroken clouds.14 mph73%30.09 "HgN/A
3:00 PM68 °FPartly sunny.14 mph64%30.07 "HgN/A
2:00 PM68 °FPartly sunny.12 mph60%30.07 "HgN/A
1:00 PM70 °FScattered clouds.8 mph57%30.09 "HgN/A
12:00 PM68 °FPartly sunny.13 mph56%30.12 "HgN/A
11:00 AM66 °FOvercast.13 mph60%30.12 "HgN/A
10:00 AM66 °FPartly sunny.12 mph64%30.12 "HgN/A
9:00 AM64 °FPartly sunny.12 mph68%30.09 "HgN/A
8:00 AM64 °FSunny.12 mph64%30.09 "Hg10 mi
7:00 AM64 °FSunny.9 mph73%30.07 "Hg10 mi
6:00 AM66 °FScattered clouds.12 mph68%30.04 "Hg6 mi
5:00 AM66 °FClear.3 mph64%30.01 "Hg10 mi
4:00 AM68 °FClear.5 mph60%30.01 "Hg10 mi
3:00 AM70 °FClear.7 mph57%30.01 "Hg10 mi
2:00 AM72 °FClear.7 mph50%30.01 "Hg10 mi
1:00 AM72 °FClear.8 mph50%30.04 "Hg10 mi
12:00 AM73 °FClear.5 mph53%30.04 "Hg10 mi
11:00 PM
Sep 15
73 °FClear.2 mph57%30.04 "Hg10 mi
10:00 PM72 °FPartly cloudy.1 mph61%30.04 "HgN/A
9:00 PM75 °FThundershowers. Passing clouds.3 mph44%30.04 "Hg5 mi
8:00 PM79 °FClear.8 mph34%30.04 "Hg10 mi
7:00 PM81 °FClear.8 mph30%30.04 "Hg10 mi
6:00 PM81 °FClear.8 mph32%30.01 "Hg10 mi
5:00 PM82 °FClear.8 mph32%30.01 "Hg10 mi
Weather by CustomWeather, © 2014

See weather overviewHow to use our weather pages